TimeCDT,TemperatureF,Dew PointF,Humidity,Sea Level PressureIn,VisibilityMPH,Wind Direction,Wind SpeedMPH,Gust SpeedMPH,PrecipitationIn,Events,Conditions,WindDirDegrees,DateUTC
2:53 AM,54.0,37.9,55,30.16,10.0,South,10.4,-,N/A,,Scattered Clouds,170,2013-04-22 07:53:00
3:53 AM,51.1,39.0,63,30.16,10.0,SSE,10.4,-,N/A,,Clear,160,2013-04-22 08:53:00
4:53 AM,50.0,39.0,66,30.15,10.0,South,10.4,-,N/A,,Clear,170,2013-04-22 09:53:00
5:53 AM,48.0,39.0,71,30.15,10.0,South,10.4,-,N/A,,Clear,170,2013-04-22 10:53:00
6:53 AM,46.9,39.9,77,30.16,10.0,SSE,9.2,-,N/A,,Clear,160,2013-04-22 11:53:00
7:53 AM,53.1,39.9,61,30.15,10.0,SSE,9.2,-,N/A,,Clear,160,2013-04-22 12:53:00
8:53 AM,57.9,39.0,49,30.14,10.0,South,13.8,-,N/A,,Clear,180,2013-04-22 13:53:00
9:53 AM,61.0,42.1,50,30.14,10.0,South,10.4,-,N/A,,Clear,180,2013-04-22 14:53:00
10:53 AM,63.0,43.0,48,30.13,10.0,SSE,9.2,-,N/A,,Clear,160,2013-04-22 15:53:00
11:53 AM,66.9,44.1,44,30.10,10.0,SSE,5.8,-,N/A,,Clear,160,2013-04-22 16:53:00
12:53 PM,66.9,43.0,42,30.08,10.0,South,9.2,-,N/A,,Clear,180,2013-04-22 17:53:00
1:53 PM,71.1,42.1,35,30.02,10.0,SSE,10.4,17.3,N/A,,Partly Cloudy,150,2013-04-22 18:53:00
2:53 PM,71.1,39.9,32,29.99,10.0,South,6.9,-,N/A,,Clear,190,2013-04-22 19:53:00
3:53 PM,69.1,39.9,35,29.95,10.0,SSE,13.8,-,N/A,,Clear,160,2013-04-22 20:53:00
4:53 PM,66.9,39.0,36,29.95,10.0,SSE,11.5,-,N/A,,Partly Cloudy,160,2013-04-22 21:53:00
5:53 PM,64.9,39.0,39,29.96,9.0,SSE,21.9,33.4,0.00,Rain,Light Rain,160,2013-04-22 22:53:00
6:53 PM,62.1,44.1,52,29.94,10.0,SE,5.8,-,0.00,Rain,Light Rain,140,2013-04-22 23:53:00
7:53 PM,60.1,48.0,64,29.94,10.0,Calm,Calm,-,0.00,,Overcast,0,2013-04-23 00:53:00
8:53 PM,60.1,43.0,53,29.95,10.0,SE,5.8,-,N/A,,Overcast,130,2013-04-23 01:53:00
9:53 PM,59.0,43.0,55,29.95,10.0,SE,5.8,-,N/A,,Mostly Cloudy,130,2013-04-23 02:53:00
10:53 PM,59.0,44.1,58,29.97,10.0,NE,5.8,-,N/A,,Overcast,40,2013-04-23 03:53:00
11:53 PM,61.0,41.0,48,29.97,10.0,Calm,Calm,-,N/A,,Scattered Clouds,0,2013-04-23 04:53:00